Year,Month,Day,Hour,Minute,Value (Times are PST for temperature in C)
2009,05,18,00,00,14.10
2009,05,18,00,01,14.10
2009,05,18,00,02,14.10
2009,05,18,00,03,14.00
2009,05,18,00,04,14.00
2009,05,18,00,05,14.00
2009,05,18,00,06,14.00
2009,05,18,00,07,14.00
2009,05,18,00,08,14.00
2009,05,18,00,09,13.90
2009,05,18,00,10,13.90
2009,05,18,00,11,13.90
2009,05,18,00,12,13.90
2009,05,18,00,13,13.90
2009,05,18,00,14,13.80
2009,05,18,00,15,13.80
2009,05,18,00,16,13.80
2009,05,18,00,17,13.80
2009,05,18,00,18,13.70
2009,05,18,00,19,13.70
2009,05,18,00,20,13.70
2009,05,18,00,21,13.70
2009,05,18,00,22,13.70
2009,05,18,00,23,13.70
2009,05,18,00,24,13.70
2009,05,18,00,25,13.60
2009,05,18,00,26,13.60
2009,05,18,00,27,13.60
2009,05,18,00,28,13.60
2009,05,18,00,29,13.50
2009,05,18,00,30,13.50
2009,05,18,00,31,13.50
2009,05,18,00,32,13.40
2009,05,18,00,33,13.40
2009,05,18,00,34,13.40
2009,05,18,00,35,13.30
2009,05,18,00,36,13.30
2009,05,18,00,37,13.30
2009,05,18,00,38,13.30
2009,05,18,00,39,13.30
2009,05,18,00,40,13.30
2009,05,18,00,41,13.30
2009,05,18,00,42,13.30
2009,05,18,00,43,13.20
2009,05,18,00,44,13.20
2009,05,18,00,45,13.20
2009,05,18,00,46,13.20
2009,05,18,00,47,13.20
2009,05,18,00,48,13.20
2009,05,18,00,49,13.10
2009,05,18,00,50,13.10
2009,05,18,00,51,13.10
2009,05,18,00,52,13.10
2009,05,18,00,53,13.10
2009,05,18,00,54,13.00
2009,05,18,00,55,13.00
2009,05,18,00,56,13.00
2009,05,18,00,57,13.00
2009,05,18,00,58,13.00
2009,05,18,00,59,12.90
2009,05,18,01,00,12.90
2009,05,18,01,01,12.90
2009,05,18,01,02,12.90
2009,05,18,01,03,12.90
2009,05,18,01,04,12.80
2009,05,18,01,05,12.80
2009,05,18,01,06,12.80
2009,05,18,01,07,12.80
2009,05,18,01,08,12.80
2009,05,18,01,09,12.80
2009,05,18,01,10,12.80
2009,05,18,01,11,12.80
2009,05,18,01,12,12.80
2009,05,18,01,13,12.70
2009,05,18,01,14,12.70
2009,05,18,01,15,12.70
2009,05,18,01,16,12.70
2009,05,18,01,17,12.60
2009,05,18,01,18,12.60
2009,05,18,01,19,12.60
2009,05,18,01,20,12.60
2009,05,18,01,21,12.60
2009,05,18,01,22,12.60
2009,05,18,01,23,12.60
2009,05,18,01,24,12.60
2009,05,18,01,25,12.60
2009,05,18,01,26,12.60
2009,05,18,01,27,12.60
2009,05,18,01,28,12.50
2009,05,18,01,29,12.50
2009,05,18,01,30,12.50
2009,05,18,01,31,12.50
2009,05,18,01,32,12.50
2009,05,18,01,33,12.50
2009,05,18,01,34,12.50
2009,05,18,01,35,12.50
2009,05,18,01,36,12.50
2009,05,18,01,37,12.40
2009,05,18,01,38,12.40
2009,05,18,01,39,12.40
2009,05,18,01,40,12.40
2009,05,18,01,41,12.40
2009,05,18,01,42,12.30
2009,05,18,01,43,12.30
2009,05,18,01,44,12.30
2009,05,18,01,45,12.30
2009,05,18,01,46,12.30
2009,05,18,01,47,12.30
2009,05,18,01,48,12.30
2009,05,18,01,49,12.30
2009,05,18,01,50,12.30
2009,05,18,01,51,12.30
2009,05,18,01,52,12.30
2009,05,18,01,53,12.30
2009,05,18,01,54,12.30
2009,05,18,01,55,12.30
2009,05,18,01,56,12.30
2009,05,18,01,57,12.30
2009,05,18,01,58,12.30
2009,05,18,01,59,12.30
2009,05,18,02,00,12.30
2009,05,18,02,01,12.30
2009,05,18,02,02,12.20
2009,05,18,02,03,12.20
2009,05,18,02,04,12.20
2009,05,18,02,05,12.10
2009,05,18,02,06,12.10
2009,05,18,02,07,12.10
2009,05,18,02,08,12.00
2009,05,18,02,09,12.00
2009,05,18,02,10,12.00
2009,05,18,02,11,12.00
2009,05,18,02,12,12.00
2009,05,18,02,13,12.00
2009,05,18,02,14,12.00
2009,05,18,02,15,12.00
2009,05,18,02,16,12.00
2009,05,18,02,17,12.00
2009,05,18,02,18,12.00
2009,05,18,02,19,12.00
2009,05,18,02,20,12.00
2009,05,18,02,21,12.00
2009,05,18,02,22,12.00
2009,05,18,02,23,12.00
2009,05,18,02,24,12.00
2009,05,18,02,25,12.00
2009,05,18,02,26,12.00
2009,05,18,02,27,12.00
2009,05,18,02,28,12.00
2009,05,18,02,29,12.00
2009,05,18,02,30,12.00
2009,05,18,02,31,12.00
2009,05,18,02,32,11.90
2009,05,18,02,33,11.90
2009,05,18,02,34,11.90
2009,05,18,02,35,11.90
2009,05,18,02,36,11.90
2009,05,18,02,37,11.80
2009,05,18,02,38,11.80
2009,05,18,02,39,11.80
2009,05,18,02,40,11.80
2009,05,18,02,41,11.80
2009,05,18,02,42,11.80
2009,05,18,02,43,11.80
2009,05,18,02,44,11.80
2009,05,18,02,45,11.80
2009,05,18,02,46,11.80
2009,05,18,02,47,11.80
2009,05,18,02,48,11.80
2009,05,18,02,49,11.80
2009,05,18,02,50,11.70
2009,05,18,02,51,11.70
2009,05,18,02,52,11.70
2009,05,18,02,53,11.60
2009,05,18,02,54,11.60
2009,05,18,02,55,11.60
2009,05,18,02,56,11.60
2009,05,18,02,57,11.60
2009,05,18,02,58,11.50
2009,05,18,02,59,11.40
2009,05,18,03,00,11.40
2009,05,18,03,01,11.40
2009,05,18,03,02,11.40
2009,05,18,03,03,11.40
2009,05,18,03,04,11.40
2009,05,18,03,05,11.30
2009,05,18,03,06,11.30
2009,05,18,03,07,11.30
2009,05,18,03,08,11.30
2009,05,18,03,09,11.30
2009,05,18,03,10,11.30
2009,05,18,03,11,11.20
2009,05,18,03,12,11.20
2009,05,18,03,13,11.20
2009,05,18,03,14,11.20
2009,05,18,03,15,11.20
2009,05,18,03,16,11.20
2009,05,18,03,17,11.20
2009,05,18,03,18,11.10
2009,05,18,03,19,11.10
2009,05,18,03,20,11.10
2009,05,18,03,21,11.10
2009,05,18,03,22,11.10
2009,05,18,03,23,11.10
2009,05,18,03,24,11.10
2009,05,18,03,25,11.10
2009,05,18,03,26,11.10
2009,05,18,03,27,11.10
2009,05,18,03,28,11.10
2009,05,18,03,29,11.10
2009,05,18,03,30,11.10
2009,05,18,03,31,11.10
2009,05,18,03,32,11.20
2009,05,18,03,33,11.20
2009,05,18,03,34,11.20
2009,05,18,03,35,11.30
2009,05,18,03,36,11.30
2009,05,18,03,37,11.30
2009,05,18,03,38,11.30
2009,05,18,03,39,11.30
2009,05,18,03,40,11.40
2009,05,18,03,41,11.40
2009,05,18,03,42,11.40
2009,05,18,03,43,11.40
2009,05,18,03,44,11.40
2009,05,18,03,45,11.40
2009,05,18,03,46,11.40
2009,05,18,03,47,11.40
2009,05,18,03,48,11.40
2009,05,18,03,49,11.40
2009,05,18,03,50,11.40
2009,05,18,03,51,11.30
2009,05,18,03,52,11.30
2009,05,18,03,53,11.30
2009,05,18,03,54,11.30
2009,05,18,03,55,11.30
2009,05,18,03,56,11.30
2009,05,18,03,57,11.30
2009,05,18,03,58,11.30
2009,05,18,03,59,11.30
2009,05,18,04,00,11.30
2009,05,18,04,01,11.30
2009,05,18,04,02,11.30
2009,05,18,04,03,11.30
2009,05,18,04,04,11.30
2009,05,18,04,05,11.30
2009,05,18,04,06,11.30
2009,05,18,04,07,11.30
2009,05,18,04,08,11.30
2009,05,18,04,09,11.30
2009,05,18,04,10,11.30
2009,05,18,04,11,11.30
2009,05,18,04,12,11.30
2009,05,18,04,13,11.30
2009,05,18,04,14,11.30
2009,05,18,04,15,11.30
2009,05,18,04,16,11.30
2009,05,18,04,17,11.20
2009,05,18,04,18,11.20
2009,05,18,04,19,11.20
2009,05,18,04,20,11.20
2009,05,18,04,21,11.10
2009,05,18,04,22,11.10
2009,05,18,04,23,11.10
2009,05,18,04,24,11.10
2009,05,18,04,25,11.10
2009,05,18,04,26,11.10
2009,05,18,04,27,11.10
2009,05,18,04,28,11.10
2009,05,18,04,29,11.10
2009,05,18,04,30,11.10
2009,05,18,04,31,11.10
2009,05,18,04,32,11.10
2009,05,18,04,33,11.10
2009,05,18,04,34,11.10
2009,05,18,04,35,11.10
2009,05,18,04,36,11.10
2009,05,18,04,37,11.10
2009,05,18,04,38,11.10
2009,05,18,04,39,11.10
2009,05,18,04,40,11.10
2009,05,18,04,41,11.10
2009,05,18,04,42,11.10
2009,05,18,04,43,11.10
2009,05,18,04,44,11.10
2009,05,18,04,45,11.10
2009,05,18,04,46,11.10
2009,05,18,04,47,11.10
2009,05,18,04,48,11.10
2009,05,18,04,49,11.10
2009,05,18,04,50,11.10
2009,05,18,04,51,11.10
2009,05,18,04,52,11.10
2009,05,18,04,53,11.10
2009,05,18,04,54,11.10
2009,05,18,04,55,11.10
2009,05,18,04,56,11.00
2009,05,18,04,57,10.90
2009,05,18,04,58,10.90
2009,05,18,04,59,10.90
2009,05,18,05,00,10.90
2009,05,18,05,01,10.90
2009,05,18,05,02,10.90
2009,05,18,05,03,10.90
2009,05,18,05,04,10.90
2009,05,18,05,05,10.90
2009,05,18,05,06,10.90
2009,05,18,05,07,10.90
2009,05,18,05,08,10.90
2009,05,18,05,09,10.90
2009,05,18,05,10,10.90
2009,05,18,05,11,10.90
2009,05,18,05,12,10.90
2009,05,18,05,13,10.90
2009,05,18,05,14,10.90
2009,05,18,05,15,10.90
2009,05,18,05,16,10.90
2009,05,18,05,17,10.90
2009,05,18,05,18,10.90
2009,05,18,05,19,10.90
2009,05,18,05,20,10.90
2009,05,18,05,21,10.90
2009,05,18,05,22,10.90
2009,05,18,05,23,10.90
2009,05,18,05,24,10.90
2009,05,18,05,25,10.90
2009,05,18,05,26,10.90
2009,05,18,05,27,10.90
2009,05,18,05,28,10.90
2009,05,18,05,29,10.80
2009,05,18,05,30,10.80
2009,05,18,05,31,10.80
2009,05,18,05,32,10.80
2009,05,18,05,33,10.80
2009,05,18,05,34,10.80
2009,05,18,05,35,10.80
2009,05,18,05,36,10.80
2009,05,18,05,37,10.80
2009,05,18,05,38,10.80
2009,05,18,05,39,10.80
2009,05,18,05,40,10.80
2009,05,18,05,41,10.80
2009,05,18,05,42,10.80
2009,05,18,05,43,10.80
2009,05,18,05,44,10.80
2009,05,18,05,45,10.80
2009,05,18,05,46,10.80
2009,05,18,05,47,10.80
2009,05,18,05,48,10.80
2009,05,18,05,49,10.80
2009,05,18,05,50,10.80
2009,05,18,05,51,10.90
2009,05,18,05,52,10.80
2009,05,18,05,53,10.80
2009,05,18,05,54,10.80
2009,05,18,05,55,10.80
2009,05,18,05,56,10.80
2009,05,18,05,57,10.80
2009,05,18,05,58,10.80
2009,05,18,05,59,10.80
2009,05,18,06,00,10.80
2009,05,18,06,01,10.80
2009,05,18,06,02,10.80
2009,05,18,06,03,10.80
2009,05,18,06,04,10.70
2009,05,18,06,05,10.70
2009,05,18,06,06,10.70
2009,05,18,06,07,10.80
2009,05,18,06,08,10.80
2009,05,18,06,09,10.80
2009,05,18,06,10,10.80
2009,05,18,06,11,10.80
2009,05,18,06,12,10.80
2009,05,18,06,13,10.80
2009,05,18,06,14,10.80
2009,05,18,06,15,10.80
2009,05,18,06,16,10.80
2009,05,18,06,17,10.90
2009,05,18,06,18,10.90
2009,05,18,06,19,10.90
2009,05,18,06,20,10.90
2009,05,18,06,21,10.90
2009,05,18,06,22,10.90
2009,05,18,06,23,10.90
2009,05,18,06,24,10.90
2009,05,18,06,25,10.90
2009,05,18,06,26,10.90
2009,05,18,06,27,10.90
2009,05,18,06,28,10.90
2009,05,18,06,29,10.90
2009,05,18,06,30,10.90
2009,05,18,06,31,10.90
2009,05,18,06,32,10.90
2009,05,18,06,33,10.90
2009,05,18,06,34,10.90
2009,05,18,06,35,10.90
2009,05,18,06,36,11.00
2009,05,18,06,37,11.10
2009,05,18,06,38,11.10
2009,05,18,06,39,11.10
2009,05,18,06,40,11.10
2009,05,18,06,41,11.10
2009,05,18,06,42,11.10
2009,05,18,06,43,11.10
2009,05,18,06,44,11.10
2009,05,18,06,45,11.10
2009,05,18,06,46,11.10
2009,05,18,06,47,11.10
2009,05,18,06,48,11.10
2009,05,18,06,49,11.10
2009,05,18,06,50,11.20
2009,05,18,06,51,11.20
2009,05,18,06,52,11.20
2009,05,18,06,53,11.20
2009,05,18,06,54,11.20
2009,05,18,06,55,11.20
2009,05,18,06,56,11.20
2009,05,18,06,57,11.30
2009,05,18,06,58,11.30
2009,05,18,06,59,11.30
2009,05,18,07,00,11.30
2009,05,18,07,01,11.30
2009,05,18,07,02,11.30
2009,05,18,07,03,11.30
2009,05,18,07,04,11.40
2009,05,18,07,05,11.40
2009,05,18,07,06,11.40
2009,05,18,07,07,11.40
2009,05,18,07,08,11.40
2009,05,18,07,09,11.40
2009,05,18,07,10,11.40
2009,05,18,07,11,11.40
2009,05,18,07,12,11.40
2009,05,18,07,13,11.40
2009,05,18,07,14,11.40
2009,05,18,07,15,11.50
2009,05,18,07,16,11.60
2009,05,18,07,17,11.60
2009,05,18,07,18,11.60
2009,05,18,07,19,11.60
2009,05,18,07,20,11.60
2009,05,18,07,21,11.60
2009,05,18,07,22,11.60
2009,05,18,07,23,11.70
2009,05,18,07,24,11.70
2009,05,18,07,25,11.70
2009,05,18,07,26,11.80
2009,05,18,07,27,11.80
2009,05,18,07,28,11.80
2009,05,18,07,29,11.80
2009,05,18,07,30,11.80
2009,05,18,07,31,11.80
2009,05,18,07,32,11.80
2009,05,18,07,33,11.90
2009,05,18,07,34,11.90
2009,05,18,07,35,12.00
2009,05,18,07,36,12.00
2009,05,18,07,37,12.00
2009,05,18,07,38,12.10
2009,05,18,07,39,12.10
2009,05,18,07,40,12.10
2009,05,18,07,41,12.20
2009,05,18,07,42,12.20
2009,05,18,07,43,12.30
2009,05,18,07,44,12.30
2009,05,18,07,45,12.30
2009,05,18,07,46,12.40
2009,05,18,07,47,12.40
2009,05,18,07,48,12.40
2009,05,18,07,49,12.50
2009,05,18,07,50,12.50
2009,05,18,07,51,12.60
2009,05,18,07,52,12.60
2009,05,18,07,53,12.60
2009,05,18,07,54,12.70
2009,05,18,07,55,12.70
2009,05,18,07,56,12.70
2009,05,18,07,57,12.70
2009,05,18,07,58,12.80
2009,05,18,07,59,12.80
2009,05,18,08,00,12.80
2009,05,18,08,01,12.80
2009,05,18,08,02,12.80
2009,05,18,08,03,12.80
2009,05,18,08,04,12.90
2009,05,18,08,05,12.90
2009,05,18,08,06,12.90
2009,05,18,08,07,12.90
2009,05,18,08,08,12.90
2009,05,18,08,09,12.90
2009,05,18,08,10,12.90
2009,05,18,08,11,12.90
2009,05,18,08,12,12.90
2009,05,18,08,13,12.90
2009,05,18,08,14,12.90
2009,05,18,08,15,12.90
2009,05,18,08,16,12.90
2009,05,18,08,17,13.00
2009,05,18,08,18,13.00
2009,05,18,08,19,13.00
2009,05,18,08,20,13.00
2009,05,18,08,21,13.00
2009,05,18,08,22,13.00
2009,05,18,08,23,13.00
2009,05,18,08,24,13.00
2009,05,18,08,25,13.10
2009,05,18,08,26,13.10
2009,05,18,08,27,13.10
2009,05,18,08,28,13.10
2009,05,18,08,29,13.10
2009,05,18,08,30,13.00
2009,05,18,08,31,13.00
2009,05,18,08,32,13.00
2009,05,18,08,33,13.00
2009,05,18,08,34,13.00
2009,05,18,08,35,13.00
2009,05,18,08,36,13.00
2009,05,18,08,37,13.00
2009,05,18,08,38,13.00
2009,05,18,08,39,13.00
2009,05,18,08,40,13.00
2009,05,18,08,41,13.00
2009,05,18,08,42,13.00
2009,05,18,08,43,13.00
2009,05,18,08,44,13.00
2009,05,18,08,45,13.10
2009,05,18,08,46,13.10
2009,05,18,08,47,13.10
2009,05,18,08,48,13.10
2009,05,18,08,49,13.10
2009,05,18,08,50,13.20
2009,05,18,08,51,13.20
2009,05,18,08,52,13.30
2009,05,18,08,53,13.30
2009,05,18,08,54,13.30
2009,05,18,08,55,13.30
2009,05,18,08,56,13.30
2009,05,18,08,57,13.40
2009,05,18,08,58,13.40
2009,05,18,08,59,13.50
2009,05,18,09,00,13.50
2009,05,18,09,01,13.50
2009,05,18,09,02,13.60
2009,05,18,09,03,13.60
2009,05,18,09,04,13.70
2009,05,18,09,05,13.70
2009,05,18,09,06,13.70
2009,05,18,09,07,13.70
2009,05,18,09,08,13.70
2009,05,18,09,09,13.70
2009,05,18,09,10,13.70
2009,05,18,09,11,13.60
2009,05,18,09,12,13.60
2009,05,18,09,13,13.60
2009,05,18,09,14,13.50
2009,05,18,09,15,13.50
2009,05,18,09,16,13.40
2009,05,18,09,17,13.40
2009,05,18,09,18,13.40
2009,05,18,09,19,13.40
2009,05,18,09,20,13.30
2009,05,18,09,21,13.30
2009,05,18,09,22,13.30
2009,05,18,09,23,13.30
2009,05,18,09,24,13.30
2009,05,18,09,25,13.30
2009,05,18,09,26,13.30
2009,05,18,09,27,13.20
2009,05,18,09,28,13.20
2009,05,18,09,29,13.20
2009,05,18,09,30,13.10
2009,05,18,09,31,13.20
2009,05,18,09,32,13.20
2009,05,18,09,33,13.20
2009,05,18,09,34,13.20
2009,05,18,09,35,13.20
2009,05,18,09,36,13.10
2009,05,18,09,37,13.10
2009,05,18,09,38,13.10
2009,05,18,09,39,13.10
2009,05,18,09,40,13.20
2009,05,18,09,41,13.20
2009,05,18,09,42,13.20
2009,05,18,09,43,13.30
2009,05,18,09,44,13.30
2009,05,18,09,45,13.30
2009,05,18,09,46,13.30
2009,05,18,09,47,13.30
2009,05,18,09,48,13.30
2009,05,18,09,49,13.40
2009,05,18,09,50,13.40
2009,05,18,09,51,13.40
2009,05,18,09,52,13.40
2009,05,18,09,53,13.50
2009,05,18,09,54,13.50
2009,05,18,09,55,13.50
2009,05,18,09,56,13.50
2009,05,18,09,57,13.50
2009,05,18,09,58,13.50
2009,05,18,09,59,13.60
2009,05,18,10,00,13.60
2009,05,18,10,01,13.60
2009,05,18,10,02,13.60
2009,05,18,10,03,13.60
2009,05,18,10,04,13.70
2009,05,18,10,05,13.70
2009,05,18,10,06,13.70
2009,05,18,10,07,13.80
2009,05,18,10,08,13.80
2009,05,18,10,09,13.80
2009,05,18,10,10,13.80
2009,05,18,10,11,13.80
2009,05,18,10,12,13.80
2009,05,18,10,13,13.80
2009,05,18,10,14,13.80
2009,05,18,10,15,13.90
2009,05,18,10,16,13.80
2009,05,18,10,17,13.80
2009,05,18,10,18,13.80
2009,05,18,10,19,13.80
2009,05,18,10,20,13.80
2009,05,18,10,21,13.80
2009,05,18,10,22,13.80
2009,05,18,10,23,13.90
2009,05,18,10,24,13.90
2009,05,18,10,25,13.90
2009,05,18,10,26,13.90
2009,05,18,10,27,13.90
2009,05,18,10,28,13.90
2009,05,18,10,29,14.00
2009,05,18,10,30,14.00
2009,05,18,10,31,14.00
2009,05,18,10,32,13.90
2009,05,18,10,33,13.90
2009,05,18,10,34,13.90
2009,05,18,10,35,13.90
2009,05,18,10,36,13.80
2009,05,18,10,37,13.80
2009,05,18,10,38,13.90
2009,05,18,10,39,13.90
2009,05,18,10,40,13.90
2009,05,18,10,41,13.90
2009,05,18,10,42,13.90
2009,05,18,10,43,14.00
2009,05,18,10,44,14.00
2009,05,18,10,45,14.00
2009,05,18,10,46,14.00
2009,05,18,10,47,14.10
2009,05,18,10,48,14.10
2009,05,18,10,49,14.10
2009,05,18,10,50,14.20
2009,05,18,10,51,14.20
2009,05,18,10,52,14.20
2009,05,18,10,53,14.20
2009,05,18,10,54,14.20
2009,05,18,10,55,14.20
2009,05,18,10,56,14.20
2009,05,18,10,57,14.20
2009,05,18,10,58,14.20
2009,05,18,10,59,14.20
2009,05,18,11,00,14.20
2009,05,18,11,01,14.20
2009,05,18,11,02,14.20
2009,05,18,11,03,14.20
2009,05,18,11,04,14.20
2009,05,18,11,05,14.20
2009,05,18,11,06,14.20
2009,05,18,11,07,14.20
2009,05,18,11,08,14.20
2009,05,18,11,09,14.20
2009,05,18,11,10,14.20
2009,05,18,11,11,14.20
2009,05,18,11,12,14.20
2009,05,18,11,13,14.20
2009,05,18,11,14,14.20
2009,05,18,11,15,14.10
2009,05,18,11,16,14.10
2009,05,18,11,17,14.10
2009,05,18,11,18,14.10
2009,05,18,11,19,14.10
2009,05,18,11,20,14.10
2009,05,18,11,21,14.10
2009,05,18,11,22,14.20
2009,05,18,11,23,14.20
2009,05,18,11,24,14.20
2009,05,18,11,25,14.20
2009,05,18,11,26,14.20
2009,05,18,11,27,14.20
2009,05,18,11,28,14.20
2009,05,18,11,29,14.30
2009,05,18,11,30,14.30
2009,05,18,11,31,14.30
2009,05,18,11,32,14.30
2009,05,18,11,33,14.30
2009,05,18,11,34,14.30
2009,05,18,11,35,14.20
2009,05,18,11,36,14.20
2009,05,18,11,37,14.20
2009,05,18,11,38,14.20
2009,05,18,11,39,14.20
2009,05,18,11,40,14.20
2009,05,18,11,41,14.20
2009,05,18,11,42,14.10
2009,05,18,11,43,14.10
2009,05,18,11,44,14.00
2009,05,18,11,45,13.90
2009,05,18,11,46,13.90
2009,05,18,11,47,13.90
2009,05,18,11,48,13.80
2009,05,18,11,49,13.80
2009,05,18,11,50,13.80
2009,05,18,11,51,13.80
2009,05,18,11,52,13.80
2009,05,18,11,53,13.80
2009,05,18,11,54,13.80
2009,05,18,11,55,13.80
2009,05,18,11,56,13.70
2009,05,18,11,57,13.70
2009,05,18,11,58,13.70
2009,05,18,11,59,13.70
2009,05,18,12,00,13.70
2009,05,18,12,01,13.70
2009,05,18,12,02,13.70
2009,05,18,12,03,13.70
2009,05,18,12,04,13.70
2009,05,18,12,05,13.70
2009,05,18,12,06,13.70
2009,05,18,12,07,13.70
2009,05,18,12,08,13.70
2009,05,18,12,09,13.70
2009,05,18,12,10,13.70
2009,05,18,12,11,13.70
2009,05,18,12,12,13.70
2009,05,18,12,13,13.70
2009,05,18,12,14,13.70
2009,05,18,12,15,13.70
2009,05,18,12,16,13.70
2009,05,18,12,17,13.70
2009,05,18,12,18,13.70
2009,05,18,12,19,13.70
2009,05,18,12,20,13.70
2009,05,18,12,21,13.70
2009,05,18,12,22,13.70
2009,05,18,12,23,13.70
2009,05,18,12,24,13.80
2009,05,18,12,25,13.70
2009,05,18,12,26,13.70
2009,05,18,12,27,13.70
2009,05,18,12,28,13.70
2009,05,18,12,29,13.70
2009,05,18,12,30,13.70
2009,05,18,12,31,13.70
2009,05,18,12,32,13.70
2009,05,18,12,33,13.70
2009,05,18,12,34,13.80
2009,05,18,12,35,13.80
2009,05,18,12,36,13.80
2009,05,18,12,37,13.80
2009,05,18,12,38,13.80
2009,05,18,12,39,13.90
2009,05,18,12,40,13.90
2009,05,18,12,41,13.90
2009,05,18,12,42,14.00
2009,05,18,12,43,14.00
2009,05,18,12,44,14.00
2009,05,18,12,45,14.00
2009,05,18,12,46,14.00
2009,05,18,12,47,14.00
2009,05,18,12,48,13.90
2009,05,18,12,49,13.90
2009,05,18,12,50,13.90
2009,05,18,12,51,13.90
2009,05,18,12,52,13.80
2009,05,18,12,53,13.80
2009,05,18,12,54,13.80
2009,05,18,12,55,13.80
2009,05,18,12,56,13.70
2009,05,18,12,57,13.70
2009,05,18,12,58,13.70
2009,05,18,12,59,13.70
2009,05,18,13,00,13.70
2009,05,18,13,01,13.70
2009,05,18,13,02,13.70
2009,05,18,13,03,13.70
2009,05,18,13,04,13.70
2009,05,18,13,05,13.70
2009,05,18,13,06,13.70
2009,05,18,13,07,13.80
2009,05,18,13,08,13.80
2009,05,18,13,09,13.80
2009,05,18,13,10,13.80
2009,05,18,13,11,13.80
2009,05,18,13,12,13.80
2009,05,18,13,13,13.80
2009,05,18,13,14,13.90
2009,05,18,13,15,13.90
2009,05,18,13,16,13.90
2009,05,18,13,17,13.90
2009,05,18,13,18,13.90
2009,05,18,13,19,13.90
2009,05,18,13,20,13.90
2009,05,18,13,21,13.80
2009,05,18,13,22,13.80
2009,05,18,13,23,13.70
2009,05,18,13,24,13.70
2009,05,18,13,25,13.70
2009,05,18,13,26,13.70
2009,05,18,13,27,13.70
2009,05,18,13,28,13.70
2009,05,18,13,29,13.70
2009,05,18,13,30,13.70
2009,05,18,13,31,13.60
2009,05,18,13,32,13.50
2009,05,18,13,33,13.50
2009,05,18,13,34,13.40
2009,05,18,13,35,13.40
2009,05,18,13,36,13.30
2009,05,18,13,37,13.30
2009,05,18,13,38,13.30
2009,05,18,13,39,13.30
2009,05,18,13,40,13.30
2009,05,18,13,41,13.30
2009,05,18,13,42,13.30
2009,05,18,13,43,13.40
2009,05,18,13,44,13.40
2009,05,18,13,45,13.50
2009,05,18,13,46,13.60
2009,05,18,13,47,13.60
2009,05,18,13,48,13.70
2009,05,18,13,49,13.70
2009,05,18,13,50,13.70
2009,05,18,13,51,13.70
2009,05,18,13,52,13.80
2009,05,18,13,53,13.90
2009,05,18,13,54,13.90
2009,05,18,13,55,14.00
2009,05,18,13,56,14.00
2009,05,18,13,57,14.10
2009,05,18,13,58,14.20
2009,05,18,13,59,14.20
2009,05,18,14,00,14.20
2009,05,18,14,01,14.20
2009,05,18,14,02,14.20
2009,05,18,14,03,14.30
2009,05,18,14,04,14.30
2009,05,18,14,05,14.40
2009,05,18,14,06,14.40
2009,05,18,14,07,14.40
2009,05,18,14,08,14.40
2009,05,18,14,09,14.40
2009,05,18,14,10,14.40
2009,05,18,14,11,14.40
2009,05,18,14,12,14.40
2009,05,18,14,13,14.40
2009,05,18,14,14,14.40
2009,05,18,14,15,14.40
2009,05,18,14,16,14.50
2009,05,18,14,17,14.50
2009,05,18,14,18,14.40
2009,05,18,14,19,14.40
2009,05,18,14,20,14.40
2009,05,18,14,21,14.50
2009,05,18,14,22,14.40
2009,05,18,14,23,14.50
2009,05,18,14,24,14.50
2009,05,18,14,25,14.50
2009,05,18,14,26,14.50
2009,05,18,14,27,14.50
2009,05,18,14,28,14.50
2009,05,18,14,29,14.50
2009,05,18,14,30,14.50
2009,05,18,14,31,14.40
2009,05,18,14,32,14.40
2009,05,18,14,33,14.40
2009,05,18,14,34,14.50
2009,05,18,14,35,14.50
2009,05,18,14,36,14.50
2009,05,18,14,37,14.50
2009,05,18,14,38,14.50
2009,05,18,14,39,14.60
2009,05,18,14,40,14.50
2009,05,18,14,41,14.50
2009,05,18,14,42,14.30
2009,05,18,14,43,14.10
2009,05,18,14,44,13.90
2009,05,18,14,45,13.80
2009,05,18,14,46,13.60
2009,05,18,14,47,13.30
2009,05,18,14,48,13.00
2009,05,18,14,49,12.80
2009,05,18,14,50,12.70
2009,05,18,14,51,12.60
2009,05,18,14,52,12.60
2009,05,18,14,53,12.50
2009,05,18,14,54,12.40
2009,05,18,14,55,12.30
2009,05,18,14,56,12.20
2009,05,18,14,57,12.20
2009,05,18,14,58,12.20
2009,05,18,14,59,12.20
2009,05,18,15,00,12.20
2009,05,18,15,01,12.20
2009,05,18,15,02,12.20
2009,05,18,15,03,12.30
2009,05,18,15,04,12.30
2009,05,18,15,05,12.30
2009,05,18,15,06,12.40
2009,05,18,15,07,12.40
2009,05,18,15,08,12.40
2009,05,18,15,09,12.40
2009,05,18,15,10,12.30
2009,05,18,15,11,12.30
2009,05,18,15,12,12.30
2009,05,18,15,13,12.30
2009,05,18,15,14,12.30
2009,05,18,15,15,12.30
2009,05,18,15,16,12.40
2009,05,18,15,17,12.50
2009,05,18,15,18,12.50
2009,05,18,15,19,12.50
2009,05,18,15,20,12.60
2009,05,18,15,21,12.60
2009,05,18,15,22,12.60
2009,05,18,15,23,12.70
2009,05,18,15,24,12.70
2009,05,18,15,25,12.70
2009,05,18,15,26,12.70
2009,05,18,15,27,12.70
2009,05,18,15,28,12.70
2009,05,18,15,29,12.70
2009,05,18,15,30,12.70
2009,05,18,15,31,12.70
2009,05,18,15,32,12.70
2009,05,18,15,33,12.70
2009,05,18,15,34,12.70
2009,05,18,15,35,12.70
2009,05,18,15,36,12.60
2009,05,18,15,37,12.60
2009,05,18,15,38,12.60
2009,05,18,15,39,12.60
2009,05,18,15,40,12.60
2009,05,18,15,41,12.60
2009,05,18,15,42,12.60
2009,05,18,15,43,12.60
2009,05,18,15,44,12.60
2009,05,18,15,45,12.60
2009,05,18,15,46,12.60
2009,05,18,15,47,12.50
2009,05,18,15,48,12.50
2009,05,18,15,49,12.50
2009,05,18,15,50,12.50
2009,05,18,15,51,12.50
2009,05,18,15,52,12.50
2009,05,18,15,53,12.50
2009,05,18,15,54,12.50
2009,05,18,15,55,12.50
2009,05,18,15,56,12.60
2009,05,18,15,57,12.60
2009,05,18,15,58,12.60
2009,05,18,15,59,12.60
2009,05,18,16,00,12.50
2009,05,18,16,01,12.50
2009,05,18,16,02,12.50
2009,05,18,16,03,12.50
2009,05,18,16,04,12.50
2009,05,18,16,05,12.50
2009,05,18,16,06,12.50
2009,05,18,16,07,12.50
2009,05,18,16,08,12.50
2009,05,18,16,09,12.50
2009,05,18,16,10,12.60
2009,05,18,16,11,12.60
2009,05,18,16,12,12.60
2009,05,18,16,13,12.60
2009,05,18,16,14,12.60
2009,05,18,16,15,12.60
2009,05,18,16,16,12.50
2009,05,18,16,17,12.60
2009,05,18,16,18,12.60
2009,05,18,16,19,12.60
2009,05,18,16,20,12.60
2009,05,18,16,21,12.60
2009,05,18,16,22,12.60
2009,05,18,16,23,12.60
2009,05,18,16,24,12.60
2009,05,18,16,25,12.60
2009,05,18,16,26,12.60
2009,05,18,16,27,12.60
2009,05,18,16,28,12.60
2009,05,18,16,29,12.60
2009,05,18,16,30,12.60
2009,05,18,16,31,12.60
2009,05,18,16,32,12.60
2009,05,18,16,33,12.60
2009,05,18,16,34,12.60
2009,05,18,16,35,12.60
2009,05,18,16,36,12.50
2009,05,18,16,37,12.50
2009,05,18,16,38,12.50
2009,05,18,16,39,12.40
2009,05,18,16,40,12.40
2009,05,18,16,41,12.40
2009,05,18,16,42,12.40
2009,05,18,16,43,12.30
2009,05,18,16,44,12.30
2009,05,18,16,45,12.30
2009,05,18,16,46,12.20
2009,05,18,16,47,12.10
2009,05,18,16,48,12.10
2009,05,18,16,49,12.00
2009,05,18,16,50,12.00
2009,05,18,16,51,11.90
2009,05,18,16,52,11.90
2009,05,18,16,53,11.80
2009,05,18,16,54,11.80
2009,05,18,16,55,11.80
2009,05,18,16,56,11.70
2009,05,18,16,57,11.70
2009,05,18,16,58,11.70
2009,05,18,16,59,11.70
2009,05,18,17,00,11.80
2009,05,18,17,01,11.80
2009,05,18,17,02,11.70
2009,05,18,17,03,11.70
2009,05,18,17,04,11.60
2009,05,18,17,05,11.60
2009,05,18,17,06,11.70
2009,05,18,17,07,11.70
2009,05,18,17,08,11.70
2009,05,18,17,09,11.70
2009,05,18,17,10,11.60
2009,05,18,17,11,11.70
2009,05,18,17,12,11.70
2009,05,18,17,13,11.70
2009,05,18,17,14,11.70
2009,05,18,17,15,11.70
2009,05,18,17,16,11.60
2009,05,18,17,17,11.60
2009,05,18,17,18,11.60
2009,05,18,17,19,11.60